Weather History for Childress, TX

Change the Weather History Date:

Saturday, December 7, 2013

  Actual Average Record
Temperature  
Mean Temperature 12 °F 43 °F  
Max Temperature 17 °F 56 °F 83 °F (2003)
Min Temperature 6 °F 31 °F 6 °F (2013)
Degree Days  
Heating Degree Days 53 22  
Month to date heating degree days 186 146  
Since 1 July heating degree days 784 706  
Cooling Degree Days 0 0  
Month to date cooling degree days 0 0  
Year to date cooling degree days 2407 2207  
Moisture  
Dew Point 3 °F    
Average Humidity 67    
Maximum Humidity 80    
Minimum Humidity 53    
Precipitation  
Precipitation 0.01 in 0.03 in 0.83 in (1988)
Month to date precipitation 0.05 0.23  
Year to date precipitation 15.19 23.24  
Sea Level Pressure  
Sea Level Pressure 30.48 in    
Wind  
Wind Speed 6 mph (NE)    
Max Wind Speed 16 mph    
Max Gust Speed 19 mph    
Visibility 10 miles    
Events      
T = Trace of Precipitation, MM = Missing Value Source: NWS Daily Summary

Daily Weather History Graph

Daily Weather History Graph

Search for Another Location

Airport:

Trip Planner

Search our weather history database for the weather conditions in past years. The results will help you decide how hot, cold, wet, or windy it might be!

Date:

Astronomy

Dec. 07, 2013 Rise Set
Actual Time 7:34 AM CST 5:30 PM CST
Civil Twilight 7:06 AM CST 5:58 PM CST
Nautical Twilight 6:35 AM CST 6:29 PM CST
Astronomical Twilight 6:05 AM CST 7:00 PM CST
Moon 11:29 AM CST (12/7) 11:04 PM CST (12/7)
Length of Visible Light 10h 51m
Length of Day
9h 56m
Waxing Crescent, 29% of the Moon is Illuminated
Dec 7
Waxing Crescent
Dec 9
First Quarter
Dec 17
Full
Dec 25
Last Quarter
Jan 1
New

Hourly Weather History & Observations

Time (CST) Temp. Windchill Dew Point Humidity Pressure Visibility Wind Dir Wind Speed Gust Speed Precip Events Conditions
12:53 AM 12.9 °F 5.2 °F 3.9 °F 67% 30.62 in 10.0 mi NNE 4.6 mph - N/A   Clear
1:53 AM 12.0 °F 2.7 °F 3.0 °F 67% 30.60 in 10.0 mi NE 5.8 mph - N/A   Clear
2:53 AM 10.0 °F 0.4 °F 1.9 °F 70% 30.60 in 10.0 mi NE 5.8 mph - N/A   Clear
3:53 AM 10.0 °F -0.9 °F 1.0 °F 67% 30.61 in 10.0 mi North 6.9 mph - N/A   Clear
4:53 AM 7.0 °F -3.3 °F 1.0 °F 77% 30.62 in 10.0 mi North 5.8 mph - N/A   Clear
5:53 AM 8.1 °F -3.2 °F -0.0 °F 70% 30.62 in 10.0 mi North 6.9 mph - N/A   Clear
6:53 AM 6.1 °F -2.8 °F -0.0 °F 76% 30.65 in 10.0 mi NW 4.6 mph - N/A   Clear
7:53 AM 9.0 °F -2.2 °F 1.0 °F 70% 30.64 in 10.0 mi North 6.9 mph - N/A   Overcast
8:53 AM 10.9 °F -2.6 °F 1.9 °F 67% 30.64 in 10.0 mi North 10.4 mph - N/A   Overcast
9:53 AM 12.9 °F -0.9 °F -0.0 °F 56% 30.59 in 10.0 mi NNE 11.5 mph - N/A   Overcast
10:53 AM 14.0 °F -0.2 °F 1.9 °F 59% 30.58 in 10.0 mi NE 12.7 mph - N/A   Overcast
11:53 AM 14.0 °F 8.2 °F 1.9 °F 59% 30.58 in 10.0 mi East 3.5 mph - N/A   Overcast
12:53 PM 14.0 °F 8.2 °F 1.9 °F 59% 30.54 in 10.0 mi ESE 3.5 mph - 0.00 in   Overcast
1:53 PM 15.1 °F - 1.9 °F 56% 30.48 in 10.0 mi Calm Calm - 0.01 in   Overcast
2:53 PM 16.0 °F - 1.9 °F 54% 30.45 in 10.0 mi Calm Calm - N/A   Overcast
3:53 PM 17.1 °F 11.7 °F 3.0 °F 54% 30.42 in 10.0 mi NE 3.5 mph - N/A   Overcast
4:53 PM 17.1 °F 8.7 °F 3.9 °F 56% 30.41 in 10.0 mi NNE 5.8 mph - N/A   Overcast
5:53 PM 17.1 °F 7.6 °F 3.0 °F 54% 30.38 in 10.0 mi NNE 6.9 mph - N/A   Overcast
6:53 PM 17.1 °F 10.0 °F 3.9 °F 56% 30.37 in 10.0 mi NE 4.6 mph - N/A   Overcast
7:53 PM 17.1 °F 10.0 °F 5.0 °F 59% 30.36 in 10.0 mi NNE 4.6 mph - N/A   Overcast
8:21 PM 17.1 °F 11.7 °F 5.0 °F 59% 30.26 in 10.0 mi ENE 3.5 mph - N/A   Overcast
8:53 PM 17.1 °F 11.7 °F 6.1 °F 62% 30.34 in 10.0 mi East 3.5 mph - N/A   Overcast
9:42 PM 17.1 °F 11.7 °F 6.1 °F 62% 30.23 in 10.0 mi SE 3.5 mph - N/A   Overcast
9:53 PM 17.1 °F 10.0 °F 5.0 °F 59% 30.31 in 10.0 mi ESE 4.6 mph - N/A   Overcast
10:53 PM 16.0 °F 7.4 °F 6.1 °F 65% 30.30 in 10.0 mi SE 5.8 mph - N/A   Overcast
11:53 PM 16.0 °F 7.4 °F 6.1 °F 65% 30.28 in 10.0 mi SSE 5.8 mph - N/A   Overcast